Weather in Londoko-Zavod

Russia / Jewish Autonomous Oblast     49°00′42″N   131°56′12″E
temp.,
°C
wind,
m/s
gust,
m/s
humid.,
%
clouds,
%
prec.,
mm/h
press.,
hPa
HPBL,
m
12 may, wed
wed1201:00+4e1193100 0.0 101728
04:00+3e229841 0.0 101734
07:00+5e2792100 0.0 1015343
10:00+7e51081100 0.0 1012604
13:00+8ese51284100 0.3 10101095
16:00+7ese41096100 5.6 1008691
19:00+7ese3998100 3.8 1007806
22:00+7ese3998100 6.1 1006620
13 may, thu
thu1301:00+7ese31099100 3.6 1005620
04:00+7ese3898100 4.4 1004720
07:00+7ese2699100 0.4 1004622
10:00+7ese1398100 1.1 1005255
13:00+10se138799 0.4 1005499
16:00+9wnw128997 1.4 100566
19:00+10wnw378995 1.3 1005652
22:00+6w229539 1.6 100819
14 may, fri
fri1401:00+5w229753 0.0 100935
04:00+5wsw239719 0.0 100996
07:00+6wsw139548 0.0 1011113
10:00+12w13695 0.0 1010761
13:00+18ssw2244100 0.0 10081090
16:00+19sse3443100 0.0 10071599
19:00+16ese3861100 0.0 1006482
22:00+12ese31177100 0.0 1005328
15 may, sat
sat1501:00+11ese31082100 0.2 1003365
04:00+9e4998100 6.9 1000440
07:00+10sw1299100 7.9 999202
10:00+12wnw4773100 8.1 9991232
13:00+16w610405 0.0 9982382
16:00+14wnw6125381 0.1 9982042
19:00+12w613585 0.3 9991845
22:00+8wnw4127830 0.3 10021192
16 may, sun
sun1601:00+7wnw5128083 0.0 10031110
04:00+6wnw411859 0.1 1003706
07:00+7w398171 0.0 1003612
10:00+13wnw61160100 0.0 10021600
13:00+14wnw6105555 0.1 10011823
16:00+17nw610425 0.1 10001981
19:00+16nw37480 0.0 10001495
22:00+9ne11775 0.0 100111